Regional Weather Roundup
Issued by NWS Jackson, KY

Home | Current Version | Previous Version | Text Only | Print | Product List | Glossary On
Versions: 1 2 3 4 5 6 7 8 9 10 11 12 13 14 15 16 17 18 19 20 21 22 23 24 25 26 27 28 29 30 31 32 33 34 35 36 37 38 39 40 41 42 43 44 45 46 47 48 49 50
000
ASUS43 KJKL 221410
RWRJKL

EAST KENTUCKY HOURLY WEATHER ROUNDUP
NATIONAL WEATHER SERVICE JACKSON KY
1000 AM EDT TUE MAY 22 2018

NOTE: "FAIR" INDICATES FEW OR NO CLOUDS BELOW 12,000 FEET WITH
NO SIGNIFICANT WEATHER AND/OR OBSTRUCTIONS TO VISIBILITY.

* THESE REPORTS ARE NOT UNDER NWS QUALITY CONTROL AND MAY NOT
  REPORT WEATHER SUCH AS PRECIPITATION AND FOG.

KYZ079-080-083-085-087-088-110-112-115-119-120-221500
...EASTERN KENTUCKY...

CITY           SKY/WX    TMP DP  RH WIND       PRES   REMARKS
JACKSON        PTSUNNY   74  66  76 CALM      30.13S
LONDON         CLOUDY    71  67  87 CALM      30.13S
SOMERSET*      CLOUDY    72  63  73 MISG      30.13S
MONTICELLO*    CLOUDY    74  65  73 VRB5      30.13S
WILLIAMSBURG*    N/A     70  70 100 CALM      30.14S
MIDDLESBORO*   CLOUDY    68  67  95 CALM      30.14F
HARLAN APT*    CLOUDY    69  66  90 CALM      30.16S
PIKE CO APT*     N/A     72  70  94 CALM      30.14S
BIG SANDY APT*   N/A     74  67  77 SW7       30.13S
MOREHEAD APT*  CLOUDY    72  68  88 S3        30.11S
ASHLAND*       CLOUDY    70  68  93 CALM      30.09F
$$

KYZ035-036-041-042-044-050-067-078-099-221500
...CENTRAL KENTUCKY...

CITY           SKY/WX    TMP DP  RH WIND       PRES   REMARKS
MT STERLING*     N/A     73  64  73 SW7       30.11S
FLEMING/MASON* PTSUNNY   73  71  94 CALM      30.10S
DANVILLE*        N/A     75  64  69 SW8       30.10S
LEXINGTON        N/A     76  66  71 SW8       30.09R
FRANKFORT      PTSUNNY   76  66  71 SW9       30.08R
LOUISVILLE     PTSUNNY   72  68  87 SW6       30.06S
LEBANON*         N/A     73  64  73 SW9       30.09R
GLASGOW*         N/A     74  65  72 SW7       30.09S
BOWLING GREEN    N/A     76  68  76 SW6       30.08R
$$

KYZ091>093-OHZ055-061-077-WVZ005-015-034-035-042-221500
...SOUTHERN OHIO/WEST VIRGINIA...

CITY           SKY/WX    TMP DP  RH WIND       PRES   REMARKS
COVINGTON      CLOUDY    71  67  87 SW6       30.07R
COLUMBUS       CLOUDY    71  66  84 SW9       30.05S
DAYTON         CLOUDY    69  69 100 SW7       30.07R
WILMINGTON     CLOUDY    70  69  97 S8        30.07R
HUNTINGTON     CLOUDY    71  67  87 VRB3      30.09S
CHARLESTON     PTSUNNY   74  68  81 S6        30.10S
PINEVILLE*       N/A     74  67  79 MISG      30.21R
BECKLEY          N/A     72  63  73 W6        30.18S
BLUEFIELD      CLOUDY    70  61  73 W7        30.21
LOGAN CO APT*  PTSUNNY   72  66  83 CALM      30.14S
$$

VAZ002-007-008-TNZ017-027-036-066-071-221500
...SOUTHWEST VIRGINIA/EAST TENNESSEE...

CITY           SKY/WX    TMP DP  RH WIND       PRES   REMARKS
WISE*          CLOUDY    70  70 100 SW3       30.21S
JONESVILLE*      N/A     72  66  83 CALM      30.18S
ABINGDON*      PTSUNNY   74  66  75 CALM      30.19R
BRISTOL        CLOUDY    70  66  87 CALM      30.16S
MORRISTOWN*    PTSUNNY   70  68  94 E5        30.15S
SEVIERVILLE*   PTSUNNY   70  68  94 CALM      30.14S
KNOXVILLE      CLOUDY    74  68  81 CALM      30.13R
LAFOLLETTE*    CLOUDY    70  66  88 CALM      30.18R
OAK RIDGE      CLOUDY    75  66  73 VRB3      30.14S
CROSSVILLE     CLOUDY    68  63  84 VRB7      30.17R
NASHVILLE        N/A     77  66  68 S5        30.09S
$$

...KEY TO REMARKS...
VSB - VISIBILITY IN MILES
WCI - WIND CHILL INDEX
HX  - HEAT INDEX

$$



USA.gov is the U.S. government's official web portal to all federal, state and local government web resources and services.